TCA7378 KLGA-KASJ

Flight info

Callsign TCA7378
Flight time 0h 57m
Altitude 40000
Route CYN VILLS SBY CVI
Aircraft C25B/M-SDE2E3FGHRWXY/LB1

Departure

Time 2026-04-12 10:57
Airport LaGuardia Airport (KLGA)

Arrival

Time 2026-04-12 11:54
Airport Tri-County Airport at Henry Joyner Field (KASJ)
Time Latitude Longitude Altitude Speed Heading
2026-04-12 10:45 40.77750 -73.88060 14 ft 0 kts 292°
2026-04-12 10:55 40.77750 -73.88063 14 ft 2 kts 292°
2026-04-12 10:55 40.77777 -73.88062 14 ft 6 kts 64°
2026-04-12 10:55 40.77804 -73.88029 15 ft 6 kts 32°
2026-04-12 10:55 40.77859 -73.87984 14 ft 13 kts 33°
2026-04-12 10:56 40.77950 -73.87909 12 ft 17 kts 32°
2026-04-12 10:56 40.78047 -73.87832 12 ft 13 kts
2026-04-12 10:56 40.78132 -73.87856 13 ft 13 kts 347°
2026-04-12 10:56 40.78215 -73.87850 14 ft 12 kts 47°
2026-04-12 10:57 40.78207 -73.87807 13 ft 0 kts 121°
2026-04-12 10:57 40.78059 -73.87499 9 ft 106 kts 123°
2026-04-12 10:57 40.77493 -73.86304 640 ft 183 kts 120°
2026-04-12 10:58 40.76678 -73.84789 1918 ft 216 kts 135°
2026-04-12 10:58 40.75318 -73.83849 3123 ft 226 kts 158°
2026-04-12 10:58 40.73780 -73.83311 4365 ft 232 kts 166°
2026-04-12 10:58 40.72169 -73.82858 5543 ft 240 kts 168°
2026-04-12 10:59 40.70482 -73.82792 6580 ft 248 kts 193°
2026-04-12 10:59 40.68802 -73.83321 7739 ft 249 kts 195°
2026-04-12 10:59 40.67139 -73.83951 8746 ft 249 kts 213°
2026-04-12 10:59 40.65724 -73.85199 9765 ft 249 kts 221°
2026-04-12 11:00 40.64317 -73.86558 10780 ft 252 kts 223°
2026-04-12 11:00 40.62933 -73.87984 11772 ft 254 kts 225°
2026-04-12 11:00 40.61481 -73.89341 12714 ft 260 kts 218°
2026-04-12 11:00 40.59909 -73.90555 13615 ft 263 kts 219°
2026-04-12 11:01 40.58358 -73.91846 14504 ft 266 kts 220°
2026-04-12 11:01 40.56774 -73.93143 15382 ft 270 kts 220°
2026-04-12 11:01 40.55161 -73.94450 16227 ft 274 kts 220°
2026-04-12 11:01 40.53525 -73.95769 17071 ft 277 kts 220°
2026-04-12 11:02 40.51855 -73.97024 17844 ft 285 kts 215°
2026-04-12 11:02 40.50058 -73.98170 18639 ft 288 kts 216°
2026-04-12 11:02 40.48261 -73.99382 19399 ft 293 kts 216°
2026-04-12 11:02 40.46432 -74.00611 20119 ft 298 kts 216°
2026-04-12 11:03 40.44565 -74.01858 20817 ft 304 kts 215°
2026-04-12 11:03 40.42657 -74.03113 21515 ft 309 kts 216°
2026-04-12 11:03 40.40723 -74.04403 22178 ft 315 kts 216°
2026-04-12 11:03 40.38748 -74.05713 22845 ft 321 kts 215°
2026-04-12 11:04 40.36767 -74.07022 23486 ft 325 kts 216°
2026-04-12 11:04 40.34735 -74.08367 24109 ft 331 kts 216°
2026-04-12 11:04 40.32668 -74.09741 24734 ft 335 kts 216°
2026-04-12 11:04 40.30576 -74.11120 25393 ft 338 kts 215°
2026-04-12 11:05 40.28469 -74.12512 26027 ft 341 kts 216°
2026-04-12 11:05 40.26338 -74.13926 26645 ft 345 kts 215°
2026-04-12 11:05 40.24184 -74.15340 27275 ft 348 kts 215°
2026-04-12 11:05 40.22015 -74.16775 27888 ft 351 kts 216°
2026-04-12 11:06 40.19853 -74.18203 28490 ft 354 kts 216°
2026-04-12 11:06 40.17615 -74.19675 29099 ft 358 kts 216°
2026-04-12 11:06 40.15409 -74.21129 29700 ft 361 kts 216°
2026-04-12 11:06 40.13161 -74.22602 30293 ft 364 kts 215°
2026-04-12 11:07 40.10891 -74.24097 30873 ft 367 kts 215°
2026-04-12 11:07 40.08648 -74.25560 32036 ft 347 kts 216°
2026-04-12 11:07 40.06579 -74.26894 33498 ft 320 kts 217°
2026-04-12 11:07 40.04608 -74.28196 34269 ft 319 kts 218°
2026-04-12 11:08 40.02623 -74.29536 34804 ft 323 kts 217°
2026-04-12 11:08 40.00603 -74.30852 35414 ft 326 kts 217°
2026-04-12 11:08 39.98594 -74.32155 35956 ft 328 kts 217°
2026-04-12 11:08 39.96547 -74.33494 36493 ft 330 kts 217°
2026-04-12 11:09 39.94485 -74.34849 37004 ft 333 kts 217°
2026-04-12 11:09 39.92406 -74.36205 37519 ft 335 kts 217°
2026-04-12 11:09 39.90313 -74.37569 38023 ft 337 kts 217°
2026-04-12 11:09 39.88209 -74.38943 38506 ft 339 kts 217°
2026-04-12 11:10 39.86094 -74.40323 38973 ft 341 kts 217°
2026-04-12 11:10 39.83995 -74.41690 39429 ft 343 kts 217°
2026-04-12 11:10 39.81966 -74.43247 39852 ft 334 kts 227°
2026-04-12 11:10 39.80209 -74.45174 40269 ft 327 kts 235°
2026-04-12 11:11 39.78634 -74.47321 40534 ft 333 kts 236°
2026-04-12 11:11 39.76972 -74.49522 40543 ft 348 kts 234°
2026-04-12 11:11 39.75234 -74.51806 40542 ft 362 kts 234°
2026-04-12 11:11 39.73437 -74.54174 40543 ft 374 kts 234°
2026-04-12 11:12 39.69747 -74.59064 40541 ft 384 kts 234°
2026-04-12 11:12 39.66017 -74.63985 40544 ft 382 kts 234°
2026-04-12 11:13 39.62291 -74.68908 40543 ft 382 kts 234°
2026-04-12 11:13 39.58557 -74.73826 40541 ft 383 kts 234°
2026-04-12 11:14 39.54820 -74.78741 40541 ft 383 kts 234°
2026-04-12 11:14 39.51106 -74.83622 40542 ft 383 kts 234°
2026-04-12 11:15 39.47363 -74.88528 40540 ft 383 kts 234°
2026-04-12 11:15 39.43614 -74.93437 40541 ft 383 kts 234°
2026-04-12 11:16 39.39861 -74.98343 40542 ft 384 kts 234°
2026-04-12 11:16 39.36126 -75.03216 40541 ft 384 kts 234°
2026-04-12 11:17 39.32335 -75.08094 40539 ft 388 kts 230°
2026-04-12 11:17 39.27706 -75.11932 40532 ft 406 kts 213°
2026-04-12 11:18 39.22292 -75.14348 40532 ft 413 kts 206°
2026-04-12 11:18 39.16836 -75.16683 40533 ft 414 kts 206°
2026-04-12 11:19 39.11396 -75.18968 40532 ft 414 kts 206°
2026-04-12 11:19 39.05921 -75.21283 40533 ft 414 kts 206°
2026-04-12 11:20 39.00435 -75.23590 40520 ft 415 kts 206°
2026-04-12 11:20 38.94981 -75.25884 40520 ft 415 kts 206°
2026-04-12 11:21 38.89491 -75.28185 40521 ft 416 kts 206°
2026-04-12 11:21 38.83989 -75.30490 40529 ft 416 kts 206°
2026-04-12 11:22 38.78491 -75.32789 40526 ft 416 kts 206°
2026-04-12 11:22 38.72983 -75.35089 40520 ft 416 kts 206°
2026-04-12 11:23 38.67508 -75.37371 40520 ft 417 kts 206°
2026-04-12 11:23 38.61994 -75.39667 40520 ft 417 kts 206°
2026-04-12 11:24 38.56474 -75.41960 40520 ft 417 kts 206°
2026-04-12 11:24 38.50950 -75.44252 40516 ft 418 kts 206°
2026-04-12 11:25 38.45461 -75.46526 40514 ft 418 kts 206°
2026-04-12 11:25 38.39926 -75.48815 40509 ft 418 kts 206°
2026-04-12 11:26 38.34512 -75.51374 40504 ft 408 kts 216°
2026-04-12 11:26 38.29890 -75.55335 40498 ft 399 kts 225°
2026-04-12 11:27 38.25406 -75.59427 40506 ft 399 kts 224°
2026-04-12 11:27 38.20910 -75.63576 40501 ft 400 kts 225°
2026-04-12 11:28 38.16399 -75.67712 40509 ft 400 kts 224°
2026-04-12 11:28 38.11884 -75.71852 40502 ft 400 kts 224°
2026-04-12 11:29 38.07397 -75.75960 40499 ft 401 kts 224°
2026-04-12 11:29 38.02854 -75.80117 40163 ft 410 kts 224°
2026-04-12 11:30 38.00507 -75.82270 39617 ft 423 kts 224°
2026-04-12 11:30 37.98085 -75.84477 39045 ft 435 kts 224°
2026-04-12 11:30 37.95598 -75.86734 38460 ft 444 kts 224°
2026-04-12 11:30 37.93062 -75.89045 37857 ft 453 kts 223°
2026-04-12 11:31 37.90481 -75.91392 37245 ft 460 kts 223°
2026-04-12 11:31 37.87868 -75.93766 36628 ft 465 kts 223°
2026-04-12 11:31 37.85265 -75.96127 36014 ft 468 kts 223°
2026-04-12 11:31 37.82610 -75.98541 35386 ft 471 kts 223°
2026-04-12 11:32 37.79935 -76.00955 34755 ft 473 kts 223°
2026-04-12 11:32 37.77256 -76.03384 34123 ft 474 kts 223°
2026-04-12 11:32 37.74570 -76.05810 33492 ft 475 kts 223°
2026-04-12 11:32 37.71889 -76.08248 32860 ft 475 kts 222°
2026-04-12 11:33 37.69203 -76.10664 32228 ft 475 kts 222°
2026-04-12 11:33 37.66518 -76.13081 31597 ft 473 kts 222°
2026-04-12 11:33 37.63844 -76.15498 30968 ft 472 kts 222°
2026-04-12 11:33 37.61211 -76.17871 30347 ft 470 kts 221°
2026-04-12 11:34 37.58551 -76.20260 29716 ft 468 kts 221°
2026-04-12 11:34 37.55904 -76.22640 29094 ft 466 kts 221°
2026-04-12 11:34 37.53272 -76.25008 28477 ft 464 kts 221°
2026-04-12 11:34 37.50652 -76.27356 27862 ft 461 kts 221°
2026-04-12 11:35 37.48052 -76.29690 27253 ft 457 kts 221°
2026-04-12 11:35 37.45465 -76.32002 26646 ft 455 kts 220°
2026-04-12 11:35 37.42934 -76.34275 26047 ft 451 kts 220°
2026-04-12 11:35 37.40381 -76.36555 25454 ft 448 kts 220°
2026-04-12 11:36 37.37847 -76.38817 24853 ft 445 kts 220°
2026-04-12 11:36 37.35338 -76.41060 24264 ft 442 kts 219°
2026-04-12 11:36 37.32842 -76.43286 23679 ft 438 kts 220°
2026-04-12 11:36 37.30361 -76.45502 23099 ft 435 kts 219°
2026-04-12 11:37 37.27902 -76.47684 22520 ft 432 kts 219°
2026-04-12 11:37 37.25457 -76.49866 21952 ft 430 kts 219°
2026-04-12 11:37 37.23050 -76.52002 21389 ft 429 kts 219°
2026-04-12 11:37 37.20627 -76.54159 20809 ft 427 kts 219°
2026-04-12 11:38 37.18224 -76.56288 20251 ft 413 kts 219°
2026-04-12 11:38 37.15936 -76.58313 19722 ft 392 kts 219°
2026-04-12 11:38 37.13761 -76.60233 19217 ft 373 kts 219°
2026-04-12 11:38 37.11698 -76.62074 18733 ft 356 kts 220°
2026-04-12 11:39 37.09712 -76.63829 18272 ft 343 kts 219°
2026-04-12 11:39 37.07796 -76.65522 17830 ft 332 kts 220°
2026-04-12 11:39 37.05935 -76.67171 17245 ft 327 kts 220°
2026-04-12 11:39 37.04100 -76.68800 16546 ft 326 kts 219°
2026-04-12 11:40 37.02268 -76.70408 16085 ft 317 kts 219°
2026-04-12 11:40 37.00494 -76.71972 15679 ft 308 kts 219°
2026-04-12 11:40 36.98768 -76.73502 15275 ft 301 kts 219°
2026-04-12 11:40 36.97074 -76.74989 14876 ft 295 kts 219°
2026-04-12 11:41 36.95416 -76.76451 14494 ft 289 kts 219°
2026-04-12 11:41 36.93786 -76.77890 14113 ft 284 kts 219°
2026-04-12 11:41 36.92178 -76.79301 13741 ft 280 kts 219°
2026-04-12 11:41 36.90619 -76.80676 13382 ft 276 kts 218°
2026-04-12 11:42 36.89057 -76.82050 13016 ft 273 kts 218°
2026-04-12 11:42 36.87508 -76.83414 12653 ft 272 kts 218°
2026-04-12 11:42 36.85965 -76.84765 12296 ft 270 kts 218°
2026-04-12 11:43 36.82902 -76.87452 11564 ft 267 kts 218°
2026-04-12 11:43 36.81386 -76.88785 11209 ft 266 kts 218°
2026-04-12 11:43 36.79876 -76.90106 10857 ft 265 kts 218°
2026-04-12 11:43 36.78373 -76.91428 10510 ft 263 kts 218°
2026-04-12 11:44 36.76895 -76.92717 10170 ft 262 kts 218°
2026-04-12 11:44 36.75406 -76.94023 9823 ft 261 kts 218°
2026-04-12 11:44 36.73919 -76.95322 9476 ft 261 kts 218°
2026-04-12 11:44 36.72437 -76.96624 9130 ft 261 kts 218°
2026-04-12 11:45 36.70951 -76.97916 8783 ft 260 kts 218°
2026-04-12 11:45 36.69474 -76.99211 8438 ft 260 kts 218°
2026-04-12 11:45 36.67994 -77.00500 8093 ft 259 kts 217°
2026-04-12 11:45 36.66540 -77.01773 7753 ft 258 kts 217°
2026-04-12 11:46 36.65070 -77.03050 7408 ft 257 kts 217°
2026-04-12 11:46 36.63609 -77.04323 7071 ft 253 kts 217°
2026-04-12 11:46 36.62202 -77.05554 6736 ft 241 kts 217°
2026-04-12 11:46 36.60853 -77.06726 6427 ft 232 kts 217°
2026-04-12 11:47 36.59551 -77.07856 6125 ft 225 kts 217°
2026-04-12 11:47 36.58290 -77.08958 5832 ft 219 kts 216°
2026-04-12 11:47 36.57051 -77.10037 5545 ft 217 kts 216°
2026-04-12 11:47 36.55850 -77.11083 5270 ft 205 kts 216°
2026-04-12 11:48 36.54714 -77.12064 4999 ft 198 kts 215°
2026-04-12 11:48 36.53605 -77.13038 4739 ft 193 kts 215°
2026-04-12 11:48 36.52514 -77.13977 4492 ft 189 kts 214°
2026-04-12 11:48 36.51444 -77.14913 4240 ft 187 kts 215°
2026-04-12 11:49 36.50375 -77.15835 3990 ft 187 kts 214°
2026-04-12 11:49 36.49316 -77.16757 3746 ft 186 kts 213°
2026-04-12 11:49 36.48211 -77.17526 3497 ft 179 kts 193°
2026-04-12 11:49 36.46986 -77.17666 3261 ft 176 kts 176°
2026-04-12 11:50 36.46180 -77.17635 3108 ft 175 kts 175°
2026-04-12 11:50 36.44573 -77.17584 2805 ft 174 kts 174°
2026-04-12 11:50 36.43358 -77.17531 2576 ft 175 kts 175°
2026-04-12 11:50 36.42148 -77.17499 2345 ft 168 kts 176°
2026-04-12 11:51 36.41391 -77.17472 2199 ft 160 kts 176°
2026-04-12 11:51 36.40320 -77.17435 2011 ft 143 kts 175°
2026-04-12 11:51 36.39385 -77.17405 1825 ft 129 kts 178°
2026-04-12 11:51 36.38509 -77.17385 1668 ft 124 kts 176°
2026-04-12 11:52 36.37379 -77.17343 1440 ft 121 kts 179°
2026-04-12 11:52 36.36548 -77.17305 1284 ft 119 kts 176°
2026-04-12 11:52 36.35738 -77.17272 1122 ft 115 kts 179°
2026-04-12 11:52 36.34946 -77.17266 979 ft 113 kts 178°
2026-04-12 11:53 36.34170 -77.17227 829 ft 111 kts 178°
2026-04-12 11:53 36.33403 -77.17210 684 ft 111 kts 179°
2026-04-12 11:53 36.32893 -77.17200 591 ft 111 kts 177°
2026-04-12 11:53 36.32126 -77.17151 447 ft 110 kts 178°
2026-04-12 11:54 36.31358 -77.17138 290 ft 111 kts 179°
2026-04-12 11:54 36.30590 -77.17108 145 ft 110 kts 177°
2026-04-12 11:54 36.29696 -77.17084 69 ft 63 kts 178°
2026-04-12 11:54 36.29521 -77.17076 72 ft 10 kts 182°
2026-04-12 11:55 36.29496 -77.17137 72 ft 9 kts 266°
2026-04-12 11:55 36.29499 -77.17205 67 ft 7 kts 281°
2026-04-12 11:55 36.29512 -77.17211 72 ft 0 kts 51°
2026-04-12 12:06 36.29534 -77.17187 68 ft 9 kts 16°
2026-04-12 12:06 36.29603 -77.17188 68 ft 11 kts 359°
2026-04-12 12:07 36.29689 -77.17190 69 ft 14 kts 358°
2026-04-12 12:07 36.29759 -77.17186 68 ft 11 kts 45°
2026-04-12 12:07 36.29769 -77.17106 67 ft 11 kts 66°
2026-04-12 12:07 36.29844 -77.17088 67 ft 13 kts 359°
2026-04-12 12:08 36.29950 -77.17091 64 ft 17 kts 358°
2026-04-12 12:08 36.30077 -77.17094 67 ft 19 kts 360°
2026-04-12 12:08 36.30212 -77.17100 71 ft 20 kts 358°
2026-04-12 12:08 36.30329 -77.17116 72 ft 17 kts 335°
2026-04-12 12:09 36.30355 -77.17105 74 ft 3 kts 168°
2026-04-12 12:09 36.30181 -77.17099 68 ft 83 kts 179°
2026-04-12 12:09 36.29195 -77.17050 520 ft 177 kts 175°
2026-04-12 12:09 36.27810 -77.16955 1871 ft 219 kts 178°
2026-04-12 12:10 36.26289 -77.17007 3340 ft 222 kts 188°
2026-04-12 12:10 36.24966 -77.18015 4654 ft 231 kts 229°
2026-04-12 12:10 36.24369 -77.19852 5941 ft 234 kts 260°
2026-04-12 12:10 36.24159 -77.21873 7083 ft 239 kts 260°
2026-04-12 12:11 36.23953 -77.23920 8253 ft 241 kts 262°
2026-04-12 12:11 36.23787 -77.25954 9417 ft 241 kts 262°
2026-04-12 12:11 36.23569 -77.28014 10561 ft 242 kts 262°
2026-04-12 12:11 36.23367 -77.30104 11595 ft 247 kts 264°
2026-04-12 12:12 36.23156 -77.32233 12567 ft 252 kts 264°
2026-04-12 12:12 36.22943 -77.34414 13485 ft 258 kts 265°
2026-04-12 12:12 36.22723 -77.36636 14423 ft 262 kts 265°
2026-04-12 12:12 36.22498 -77.38894 15341 ft 266 kts 266°
2026-04-12 12:13 36.22277 -77.41157 16202 ft 271 kts 265°
2026-04-12 12:13 36.22040 -77.43486 17072 ft 275 kts 266°
2026-04-12 12:13 36.21806 -77.45852 17940 ft 279 kts 266°
2026-04-12 12:13 36.21566 -77.48252 18779 ft 283 kts 266°
2026-04-12 12:14 36.21326 -77.50673 19635 ft 285 kts 266°
2026-04-12 12:14 36.21077 -77.53115 20485 ft 287 kts 266°
2026-04-12 12:14 36.20833 -77.55583 21308 ft 289 kts 266°
2026-04-12 12:14 36.20581 -77.58061 22107 ft 292 kts 267°
2026-04-12 12:15 36.20332 -77.60530 22888 ft 294 kts 267°
2026-04-12 12:15 36.20075 -77.63049 23675 ft 296 kts 267°
2026-04-12 12:15 36.19821 -77.65586 24428 ft 298 kts 268°
2026-04-12 12:15 36.19559 -77.68147 25130 ft 302 kts 268°
2026-04-12 12:16 36.19297 -77.70738 25823 ft 305 kts 268°
2026-04-12 12:16 36.19030 -77.73356 26505 ft 308 kts 268°
2026-04-12 12:16 36.18758 -77.76002 27178 ft 311 kts 268°
2026-04-12 12:16 36.18484 -77.78677 27825 ft 315 kts 269°
2026-04-12 12:17 36.18206 -77.81378 28465 ft 319 kts 269°
2026-04-12 12:17 36.17930 -77.84077 29099 ft 322 kts 269°
2026-04-12 12:17 36.17642 -77.86842 29746 ft 325 kts 269°
2026-04-12 12:17 36.17353 -77.89634 30358 ft 329 kts 269°
2026-04-12 12:18 36.17062 -77.92422 31328 ft 316 kts 270°
2026-04-12 12:18 36.16785 -77.94993 32869 ft 288 kts 271°
2026-04-12 12:18 36.16530 -77.97381 34019 ft 276 kts 273°
2026-04-12 12:18 36.16301 -77.99752 34648 ft 280 kts 273°
2026-04-12 12:19 36.16056 -78.02156 35260 ft 284 kts 273°
2026-04-12 12:19 36.15801 -78.04560 35815 ft 287 kts 273°
2026-04-12 12:19 36.15537 -78.07027 36362 ft 291 kts 273°
2026-04-12 12:19 36.15279 -78.09529 36894 ft 295 kts 273°
2026-04-12 12:20 36.15010 -78.12056 37432 ft 298 kts 273°
2026-04-12 12:20 36.14740 -78.14620 37944 ft 301 kts 274°
2026-04-12 12:20 36.14468 -78.17197 38433 ft 305 kts 274°
2026-04-12 12:20 36.14194 -78.19878 38458 ft 323 kts 273°
2026-04-12 12:21 36.13895 -78.22709 38471 ft 340 kts 272°
2026-04-12 12:21 36.13575 -78.25678 38470 ft 356 kts 272°
2026-04-12 12:21 36.13243 -78.28729 38471 ft 369 kts 271°
2026-04-12 12:22 36.12564 -78.35028 38472 ft 370 kts 271°
2026-04-12 12:22 36.11883 -78.41357 38468 ft 372 kts 271°
2026-04-12 12:23 36.11192 -78.47708 38458 ft 374 kts 271°
2026-04-12 12:23 36.10507 -78.54038 38460 ft 374 kts 271°
2026-04-12 12:24 36.09807 -78.60416 38459 ft 374 kts 271°